Back to catalog

DELTA 1 DEB

AliveUNKNOWN
NORAD 12581·DEBRIS·🇺🇸 United States

Launched Jul 29, 1976 from Vandenberg Space Force Base

Loading…

Next Passes (next 24 hours)

TLE

FreshSource: Space-Track

Epoch: Sep 14, 2026, 14:29 UTC

1 12581U 76077DZ  26257.60377666 -.00000026  00000-0  18545-3 0  9992
2 12581 102.4358 124.0332 0382294  11.7152  14.8813 11.70251008 75857

Track DELTA 1 DEB in real time with AllMySat

Download on the App Store